sat.trackr.live / text

‹ back to catalog

STARLINK-5317

NORAD 55283 · 2023-010Q

PAYLOAD ACTIVE UNKNOWN

§ Identity

Operator
Country
US
Launch date
2023-01-19
Launch site
AFWTR
Launch vehicle
Mass (kg)
RCS (m²)

Purposes: comms

External: N2YO · Heavens-Above · Gunter

§ Orbital elements

Epoch: 2026-05-25T04:10:48.860832Z

Period
96.11 min
Inclination
69.9999°
Eccentricity
0.0002996
Mean motion
14.98337173 rev/d
Perigee alt
570.0 km
Apogee alt
574.1 km
Semi-major
6,950.2 km
B*
-1.4314e-5
RAAN
211.5650°
Arg perigee
261.5191°
Mean anomaly
98.5628°
Rev number
18,423

§ Raw data

STARLINK-53171 55283U 23010Q   26145.17417663 -.00000264  00000+0 -14314-4 0  99922 55283  69.9999 211.5650 0002996 261.5191  98.5628 14.98337173184239

JSON: /api/v1/satellites/55283 · /tle

For live sub-satellite position, see the globe view (requires WebGL).

§ Visibility from observer

Set your observer location to see the next 7 days of passes ≥ 10°. The values pass through the URL so the page stays shareable.

No JS? Fill the form by hand. The geolocation button needs JavaScript.